Home > Weather > Telfs > Past weeks

Flag for Austria Past Weather in Telfs, Tyrol, Austria — Yesterday and Last 2 Weeks

Now
63 °F

Sprinkles. Partly sunny.


Feels Like: 63 °F
Forecast: 59 / 76 °F
Wind: 7 mph from East

Location: Innsbruck-Flughafen

Current Time: Jul 27, 2016 at 7:23:01 PM

Latest Report: Jul 27, 2016 at 6:50 PM


Visibility: N/A

Pressure: 30.09 "Hg (27.94 "Hg at 630m altitude)

Humidity: 94%

Dew Point: 61 °F

Location of TelfsLocation

Past Weather in Telfs — Graph

°F

Telfs Temperature Yesterday

Maximum temperature yesterday: 81 °F (at 2:50 PM)
Minimum temperature yesterday: 61 °F (at 11:20 PM)
Average temperature yesterday: 68 °F

High & Low Weather Summary for the Past Weeks

 TemperatureHumidityPressure
High88 °F (Jul 20, 3:20 PM)100% (Jul 12, 8:20 PM)30.36 "Hg (Jul 12, 8:20 PM)
Low48 °F (Jul 14, 12:50 AM)31% (Jul 20, 3:20 PM)29.92 "Hg (Jul 12, 5:20 PM)
Average65 °F77%30.13 "Hg
* Reported Jul 12 5:20 PM — Jul 27 5:50 PM, Telfs, Weather by CustomWeather, © 2016

Note: Actual official high and low records may vary slightly from our data, if they occured in-between our weather recording intervals... More about our weather records

Advertising

Telfs Weather History for the Previous 24 Hours

Scroll right to see more
 ConditionsComfort  
Time TempWeatherWind HumidityBarometerVisibility
5:50 PM
Wed, Jul 27
64 °FThunderstorms. Broken clouds.15 mph83%30.07 "HgN/A
5:20 PM66 °FThunderstorms. Broken clouds.24 mph73%30.04 "Hg4 mi
4:50 PM79 °FThundershowers. Broken clouds.2 mph54%30.01 "HgN/A
4:20 PM79 °FThundershowers. Broken clouds.5 mph54%29.98 "HgN/A
3:50 PM79 °FBroken clouds.6 mph54%30.01 "HgN/A
3:20 PM79 °FScattered clouds.5 mph48%30.01 "HgN/A
2:50 PM77 °FScattered clouds.5 mph51%30.01 "HgN/A
2:20 PM77 °FScattered clouds.3 mph51%30.01 "HgN/A
1:50 PM77 °FScattered clouds.6 mph51%30.04 "HgN/A
1:20 PM75 °FPassing clouds.5 mph57%30.04 "HgN/A
12:50 PM73 °FPassing clouds.2 mph61%30.07 "HgN/A
12:20 PM72 °FScattered clouds.1 mph69%30.07 "HgN/A
11:50 AM70 °FScattered clouds.2 mph73%30.09 "HgN/A
11:20 AM68 °FScattered clouds.3 mph73%30.09 "HgN/A
10:50 AM66 °FPartly sunny.2 mph78%30.12 "HgN/A
10:20 AM66 °FPartly sunny.3 mph83%30.12 "HgN/A
9:50 AM64 °FPartly sunny.3 mph83%30.12 "HgN/A
9:20 AM64 °FPartly sunny.1 mph88%30.12 "HgN/A
8:50 AM63 °FPartly sunny.3 mph88%30.12 "HgN/A
8:20 AM61 °FPartly sunny.2 mph94%30.12 "HgN/A
7:50 AM61 °FPartly sunny.2 mph94%30.12 "HgN/A
7:20 AM61 °FPartly sunny.2 mph94%30.12 "HgN/A
6:50 AM59 °FPartly sunny.2 mph100%30.12 "HgN/A
6:20 AM59 °FPassing clouds.1 mph100%30.12 "HgN/A
5:50 AM59 °FPassing clouds.1 mph94%30.12 "HgN/A
5:20 AM59 °FLow clouds.1 mph94%30.12 "HgN/A
4:50 AM59 °FPassing clouds.3 mph94%30.12 "HgN/A
4:20 AM59 °FPassing clouds.2 mph100%30.12 "HgN/A
3:50 AM59 °FPassing clouds.2 mph100%30.12 "HgN/A
3:20 AM61 °FPassing clouds.2 mph94%30.15 "HgN/A
2:50 AM61 °FPassing clouds.2 mph94%30.15 "HgN/A
2:20 AM61 °FLow clouds.3 mph94%30.15 "HgN/A
1:50 AM61 °FPassing clouds.2 mph94%30.15 "HgN/A
1:20 AM59 °FPassing clouds.5 mph100%30.15 "HgN/A
12:50 AM61 °FPassing clouds.2 mph94%30.15 "HgN/A
12:20 AM61 °FPassing clouds.1 mph94%30.15 "HgN/A
11:50 PM
Tue, Jul 26
61 °FPassing clouds.3 mph100%30.15 "HgN/A
11:20 PM61 °FPassing clouds.2 mph100%30.18 "HgN/A
10:50 PM63 °FPartly cloudy.2 mph94%30.18 "HgN/A
10:20 PM63 °FPartly cloudy.1 mph94%30.18 "HgN/A
9:50 PM63 °FPartly sunny.1 mph100%30.18 "HgN/A
9:20 PM64 °FPartly sunny.2 mph88%30.15 "HgN/A
8:50 PM64 °FBroken clouds.5 mph88%30.15 "HgN/A
8:20 PM64 °FSprinkles. Broken clouds.2 mph94%30.15 "HgN/A
7:50 PM64 °FSprinkles. Broken clouds.6 mph94%30.15 "HgN/A
7:20 PM64 °FRain showers. Broken clouds.12 mph94%30.15 "HgN/A
Weather by CustomWeather, © 2016

See weather overviewHow to use our weather pages